User: anonymous   Login
Location: Oronoko Observatory
(41.9167°N, 86.3833°W)
Time: 05:11:52
(UTC-04:00)
Language:

PAYLOAD A - Orbit

View from above orbital plane
View from above orbital plane
View from above satellite
View from above satellite

Ground track
Ground track

The orbit data is extracted from the following two-line orbital elements,

1 27840U 03031A   15142.86447514  .00000015  00000-0  18114-4 0  9995
2 27840 098.2085 162.4141 0097236 238.6935 224.8491 14.38804731624558
Epoch (UTC): 22 May 2015 20:44:50
Eccentricity: 0.0097236
inclination: 98.2085°
perigee height: 693 km
apogee height: 832 km
right ascension of ascending node: 162.4141°
argument of perigee: 238.6935°
revolutions per day: 14.38804731
mean anomaly at epoch: 224.8491°
orbit number at epoch: 62455

The dashed part of the orbit path shows where the satellite is in the earth's shadow,  

DLR